Regional Weather Roundup
Issued by NWS

Home | Current Version | Previous Version | Text Only | Print | Product List | Glossary On
Versions: 1 2 3 4 5 6 7 8 9 10 11 12 13 14 15 16 17 18 19 20 21 22 23 24 25 26 27
000
ASUS45 KSLC 280510
RWRUT

UTAH REGIONAL WEATHER ROUNDUP
NATIONAL WEATHER SERVICE SALT LAKE CITY UT
1100 PM MDT SAT MAY 27 2017

UTZ001>011-023>025-280600-

NORTHERN UTAH

CITY           SKY/WX    TMP DP  RH WIND       PRES   REMARKS
BRIGHAM CITY   CLEAR     60  37  42 CALM      30.23S
HILL AFB       CLEAR     56  34  43 E12       30.24R
LOGAN          CLEAR     51  41  68 CALM      30.24R
OGDEN          CLEAR     56  37  49 S7        30.22R
SALT LAKE CITY CLEAR     63  43  48 CALM      30.22R
TOOELE VALLEY  CLEAR     45  34  65 S8        30.24R
WENDOVER       CLEAR     60  29  30 NW6       30.23R
HEBER CITY     CLEAR     50  34  53 CALM      30.26R
WEST JORDAN    CLEAR     55  42  60 NW5       30.24S

$$

UTZ011>015-024>027-280600-

CENTRAL/NORTHEAST UTAH

CITY           SKY/WX    TMP DP  RH WIND       PRES   REMARKS
PROVO AIRPORT  CLEAR     59  41  51 N8        30.23R
MOAB/CANYONLAN CLEAR     66  24  20 E17       30.14R
DELTA          CLEAR     54  25  32 N10       30.23S
PRICE          CLEAR     55  31  39 N9        30.23R
ROOSEVELT      MOCLDY    57  32  38 NW3       30.26R
VERNAL         CLEAR     53  27  36 N8        30.24R

$$

UTZ013>016-019>022-027-280600-

SOUTHERN UTAH

CITY           SKY/WX    TMP DP  RH WIND       PRES   REMARKS
BRYCE CANYON   CLEAR     50  26  39 N9        30.32R
CEDAR CITY     CLEAR     48  26  42 N6        30.23R
MILFORD        CLEAR     51  24  34 N7        30.22R
ST GEORGE      CLEAR     77  25  14 NE20      30.03R
HANKSVILLE     CLEAR     64  19  17 CALM      30.16R
BLANDING       CLEAR     56  19  23 N10       30.27R

$$

REGIONAL REPORTS     COLORADO/ARIZONA

CITY           SKY/WX    TMP DP  RH WIND       PRES   REMARKS
CRAIG, CO      CLEAR     45  36  70 E7        30.30R
GRAND JUNCTION CLEAR     59  26  28 NE9       30.21R
RIFLE, CO      CLEAR     49  29  46 SE6       30.28R
MONTROSE, CO   CLEAR     50  31  48 S5        30.27R
CORTEZ, CO     CLEAR     49  24  37 NE5       30.20R
COLORADO CITY    N/A     64  27  24 CALM      30.17R
PAGE, AZ       CLEAR     76  23  14 N9        30.07R
GRAND CANYON   CLEAR     45  26  47 CALM      30.22R
KINGMAN, AZ    CLEAR     69  19  15 MISG      30.04R
FLAGSTAFF, AZ  CLEAR     48  24  39 CALM      30.24R

$$

REGIONAL REPORTS    NEVADA/IDAHO/WYOMING

CITY           SKY/WX    TMP DP  RH WIND       PRES   REMARKS
LAS VEGAS, NV  PTCLDY    86  26  11 E3        29.94R
ELY, NY        CLEAR     53  19  26 N9        30.28R
ELKO, NV       CLEAR     57  29  34 E5        30.21R
POCATELLO, ID  CLEAR     51  41  68 E6        30.25R
BURLEY, ID     CLEAR     54  46  74 SE3       30.22R
EVANSTON, WY   CLEAR     48  32  53 N5        30.34R
ROCK SPRINGS,  CLEAR     48  28  46 E9        30.31R
KEMMERER, WY     N/A     43  30  61 N10       30.35S

$$




USA.gov is the U.S. government's official web portal to all federal, state and local government web resources and services.